Brandon, Manitoba

8:03 AM CST on February 22, 2017 (GMT -0600)
Brandon

Weather History for CYBR - September, 2013

Change the Weather History Date:

Tuesday, September 17, 2013

  Actual Average Record
Temperature  
Mean Temperature 62 °F -  
Max Temperature 79 °F 58 °F 82 °F (2000)
Min Temperature 45 °F 34 °F 30 °F (2016)
Degree Days  
Heating Degree Days 3    
Growing Degree Days 12 (Base 50)    
Moisture  
Dew Point 53 °F    
Average Humidity 73    
Maximum Humidity 100    
Minimum Humidity 47    
Precipitation  
Precipitation 0.00 in 0.05 in - ()
Sea Level Pressure  
Sea Level Pressure 29.78 in    
Wind  
Wind Speed 7 mph ()    
Max Wind Speed 16 mph    
Max Gust Speed 22 mph    
Visibility 15.0 miles    
Events      
Averages and records for this station are not official NWS values.
T = Trace of Precipitation, MM = Missing Value Source: Averaged Metar Reports

Daily Weather History Graph

Daily Weather History Graph

Search for Another Location

Airport or City:

Trip Planner

Search our weather history database for the weather conditions in past years. The results will help you decide how hot, cold, wet, or windy it might be!

Date:

Astronomy

Sep. 17, 2013 Rise Set
Actual Time 7:19 AM CDT 7:48 PM CDT
Civil Twilight 6:46 AM CDT 8:20 PM CDT
Nautical Twilight 6:08 AM CDT 8:58 PM CDT
Astronomical Twilight 5:27 AM CDT 9:38 PM CDT
Moon 6:40 PM CDT (9/17) 5:07 AM CDT (9/17)
Length of Visible Light 13h 33m
Length of Day
12h 28m
Waxing Gibbous, 96% of the Moon is Illuminated
Sep 17
Waxing Gibbous
Sep 19
Full
Sep 26
Last Quarter
Oct 4
New
Oct 11
First Quarter

Hourly Weather History & Observations

Time (CDT) Temp. Windchill Dew Point Humidity Pressure Visibility Wind Dir Wind Speed Gust Speed Precip Events Conditions
12:00 AM 53.6 °F - 48.2 °F 82% 29.94 in 15.0 mi SE 9.2 mph - N/A   Partly Cloudy
1:00 AM 53 °F - 48 °F 77% 29.92 in 15 mi SE 8.1 mph - -   Clear
1:00 AM 53.6 °F - 48.2 °F 82% 29.92 in 15.0 mi SE 8.1 mph - N/A   Partly Cloudy
2:00 AM 51.8 °F - 48.2 °F 88% 29.91 in 15.0 mi SE 8.1 mph - N/A   Partly Cloudy
3:00 AM 46.4 °F 44.3 °F 44.6 °F 93% 29.89 in 15.0 mi East 4.6 mph - N/A   Partly Cloudy
4:00 AM 46.4 °F 44.3 °F 46.4 °F 100% 29.88 in 15.0 mi East 4.6 mph - N/A   Partly Cloudy
5:00 AM 48.2 °F - 46.4 °F 93% 29.86 in 15.0 mi East 2.3 mph - N/A   Partly Cloudy
6:00 AM 48.2 °F - 46.4 °F 93% 29.83 in 15.0 mi East 4.6 mph - N/A   Partly Cloudy
7:00 AM 51 °F - 49 °F 91% 29.83 in 15 mi SE 4.6 mph - -   Clear
7:00 AM 51.8 °F - 50.0 °F 94% 29.83 in 15.0 mi SE 5.8 mph - N/A   Partly Cloudy
8:00 AM 51.8 °F - 50.0 °F 94% 29.82 in 15.0 mi ESE 2.3 mph - N/A   Partly Cloudy
9:00 AM 59.0 °F - 53.6 °F 82% 29.81 in 15.0 mi South 6.9 mph - N/A   Clear
10:00 AM 62.6 °F - 53.6 °F 72% 29.78 in 15.0 mi SW 11.5 mph 21.9 mph N/A   Partly Cloudy
11:00 AM 66.2 °F - 53.6 °F 64% 29.77 in 15.0 mi SSW 16.1 mph 21.9 mph N/A   Clear
12:00 PM 69.8 °F - 55.4 °F 60% 29.74 in 15.0 mi South 15.0 mph 21.9 mph N/A   Clear
1:00 PM 71 °F - 55 °F 48% 29.73 in 15 mi South 13.8 mph - -  
1:00 PM 71.6 °F - 55.4 °F 57% 29.73 in 15.0 mi South 12.7 mph - N/A   Clear
2:00 PM 75.2 °F - 57.2 °F 53% 29.71 in 15.0 mi South 13.8 mph - N/A   Clear
3:00 PM 75.2 °F - 57.2 °F 53% 29.70 in 15.0 mi South 10.4 mph 20.7 mph N/A   Clear
4:00 PM 78.8 °F - 59.0 °F 51% 29.68 in 15.0 mi SSW 15.0 mph - N/A   Clear
5:00 PM 78.8 °F - 59.0 °F 51% 29.68 in 15.0 mi SSW 13.8 mph - N/A   Clear
6:00 PM 78.8 °F - 59.0 °F 51% 29.68 in 15.0 mi SSW 11.5 mph - N/A   Partly Cloudy
7:00 PM 76 °F - 60 °F 47% 29.68 in 15 mi South 6.9 mph - -   Clear
7:00 PM 77.0 °F - 59.0 °F 54% 29.67 in 15.0 mi South 6.9 mph - N/A   Partly Cloudy
8:00 PM 69.8 °F - 59.0 °F 68% 29.68 in 15.0 mi South 4.6 mph - N/A   Partly Cloudy
9:00 PM 68.0 °F - 59.0 °F 73% 29.67 in 15.0 mi SSE 6.9 mph - N/A   Partly Cloudy
10:00 PM 62.6 °F - 59.0 °F 88% 29.69 in 15.0 mi SE 8.1 mph - N/A   Partly Cloudy
11:00 PM 60.8 °F - 57.2 °F 88% 29.69 in 15.0 mi ESE 9.2 mph - N/A   Partly Cloudy